Total_Precipitation_Accumulation
0.11 0.19 0.22 0.24 0.22 0.20 0.15 0.14 0.21 0.30 0.47 0.64 0.76 1.01 0.89 0.89 0.98 1.06 0.95 0.93 0.89 0.93 1.01 1.19 1.23 1.20 1.23 1.28 1.31 1.44 1.46 1.43 1.52 1.65 1.70 1.74 1.77 1.81 1.87 1.90 1.85 2.01 2.04 2.14
0.12 0.15 0.16 0.18 0.20 0.17 0.13 0.11 0.12 0.24 0.47 0.67 0.77 0.89 0.89 0.79 0.88 1.08 1.03 0.94 0.95 1.05 1.17 1.19 1.12 1.11 1.10 1.06 1.17 1.37 1.48 1.57 1.66 1.68 1.63 1.72 1.76 1.76 1.78 1.84 1.93 2.00 2.03 2.16
0.22 0.17 0.19 0.27 0.23 0.20 0.17 0.15 0.16 0.29 0.48 0.65 0.82 0.77 0.85 0.85 0.87 0.86 0.87 0.88 0.98 1.08 1.12 1.14 1.21 1.20 1.08 0.96 1.09 1.40 1.51 1.54 1.75 1.87 1.78 1.85 1.86 1.86 1.84 1.88 2.05 2.12 2.22 2.29
0.30 0.33 0.40 0.32 0.28 0.26 0.28 0.29 0.27 0.31 0.46 0.68 0.88 0.85 0.83 0.85 0.85 0.80 0.68 0.76 0.87 0.94 0.98 1.02 1.08 1.10 1.08 1.07 1.12 1.39 1.62 1.72 2.00 2.17 2.02 2.00 2.02 2.04 2.08 2.18 2.25 2.33 2.36 2.29
0.46 0.47 0.50 0.43 0.40 0.42 0.51 0.64 0.54 0.54 0.68 0.75 0.75 0.80 0.88 0.83 0.77 0.71 0.71 0.78 0.82 0.92 1.00 1.12 1.27 1.27 1.25 1.34 1.45 1.62 1.80 1.95 2.21 2.43 2.54 2.49 2.32 2.38 2.47 2.47 2.44 2.50 2.57 2.56
0.61 0.68 0.77 0.72 0.58 0.54 0.69 1.14 0.94 0.77 0.79 0.82 0.84 1.08 1.08 0.81 0.71 0.67 0.71 0.82 0.97 1.13 1.17 1.23 1.43 1.44 1.46 1.59 1.83 1.98 1.97 2.00 2.21 2.46 2.57 2.54 2.50 2.67 2.77 2.67 2.58 2.63 2.54 2.42
0.70 0.80 0.81 0.74 0.66 0.72 1.25 1.67 1.22 1.06 1.05 1.12 1.14 1.10 0.96 0.87 0.87 0.77 0.75 0.86 0.92 0.95 1.10 1.23 1.37 1.51 1.69 1.77 1.90 2.00 2.06 2.07 2.18 2.41 2.69 2.64 2.68 2.75 2.83 2.82 2.82 2.83 2.73 2.60
0.85 1.09 1.23 0.81 0.73 1.13 1.55 1.40 1.45 1.44 1.39 1.32 1.17 1.02 0.91 0.90 0.96 0.86 0.84 0.90 0.95 0.91 1.01 1.20 1.41 1.65 1.77 1.80 1.89 2.06 2.10 2.09 2.15 2.41 2.54 2.59 2.75 2.81 2.91 3.01 2.98 2.94 2.93 2.71
1.16 1.40 1.30 1.03 1.12 1.22 1.32 1.43 1.45 1.39 1.40 1.35 1.28 1.15 1.05 1.04 1.04 1.01 1.05 1.02 1.11 1.13 1.13 1.25 1.44 1.66 1.87 1.91 1.92 1.89 1.87 1.88 2.00 2.19 2.31 2.47 2.59 2.53 2.59 2.73 2.69 2.70 2.69 2.61
1.60 1.58 1.41 1.27 1.22 1.23 1.21 1.28 1.23 1.15 1.12 1.11 1.12 1.12 1.10 1.12 1.19 1.21 1.27 1.22 1.25 1.37 1.37 1.37 1.45 1.63 1.80 1.82 1.85 1.84 1.79 1.77 1.90 2.15 2.28 2.37 2.44 2.41 2.45 2.49 2.54 2.60 2.63 2.56
2.03 1.99 1.79 1.63 1.43 1.37 1.25 1.26 1.23 1.12 1.09 1.04 0.98 1.01 1.03 1.02 1.11 1.17 1.23 1.26 1.26 1.38 1.47 1.44 1.46 1.63 1.75 1.81 1.89 1.95 1.93 1.92 2.05 2.15 2.23 2.40 2.46 2.49 2.49 2.46 2.44 2.43 2.41 2.35
2.32 2.12 2.02 1.95 1.55 1.47 1.49 1.36 1.25 1.25 1.23 1.14 1.01 0.99 1.02 1.03 1.11 1.15 1.22 1.34 1.40 1.47 1.50 1.46 1.45 1.57 1.71 1.90 2.07 2.14 2.07 2.06 2.07 2.05 2.12 2.14 2.17 2.14 2.10 2.03 2.04 2.01 2.00 1.92
1.75 1.81 1.90 2.03 1.81 1.54 1.46 1.37 1.29 1.29 1.29 1.22 1.11 1.06 0.99 0.97 1.08 1.18 1.29 1.43 1.60 1.67 1.58 1.52 1.56 1.64 1.72 1.87 2.11 2.24 2.16 2.02 1.94 1.89 1.90 1.91 1.96 2.03 2.08 1.98 1.91 1.84 1.76 1.64
1.71 1.94 2.08 2.02 2.07 1.94 1.65 1.47 1.33 1.27 1.24 1.16 1.11 1.10 1.09 1.07 1.09 1.20 1.38 1.47 1.49 1.57 1.58 1.53 1.54 1.62 1.71 1.88 2.16 2.30 2.20 2.06 1.87 1.78 1.80 1.82 1.95 2.01 2.02 2.02 1.98 1.79 1.64 1.56
1.83 1.93 2.03 1.89 1.86 1.89 1.88 1.81 1.63 1.47 1.31 1.24 1.20 1.20 1.18 1.17 1.19 1.25 1.34 1.48 1.59 1.62 1.53 1.48 1.51 1.58 1.66 1.81 1.99 2.15 2.17 2.04 1.90 1.86 1.89 1.83 1.80 1.87 1.87 1.87 1.92 1.84 1.67 1.63
1.76 1.68 1.75 1.84 1.87 1.77 1.76 1.83 1.78 1.62 1.40 1.31 1.33 1.32 1.26 1.27 1.32 1.36 1.41 1.54 1.80 1.93 1.78 1.62 1.55 1.54 1.62 1.77 1.87 1.86 1.88 1.86 1.81 1.83 1.85 1.82 1.83 1.85 1.91 1.95 1.98 1.90 1.77 1.67
1.62 1.51 1.52 1.65 1.74 1.79 1.75 1.67 1.61 1.55 1.48 1.41 1.41 1.39 1.35 1.36 1.44 1.59 1.67 1.72 1.77 1.76 1.74 1.75 1.67 1.59 1.66 1.79 1.92 1.84 1.69 1.61 1.56 1.53 1.58 1.67 1.71 1.78 1.90 1.98 2.00 1.88 1.66 1.52
1.34 1.32 1.38 1.46 1.54 1.70 1.73 1.60 1.52 1.48 1.47 1.46 1.44 1.41 1.40 1.46 1.69 1.94 1.98 1.91 1.90 1.77 1.62 1.61 1.63 1.63 1.72 1.79 1.88 1.89 1.76 1.57 1.40 1.34 1.38 1.50 1.70 1.83 1.89 1.83 1.75 1.68 1.58 1.49
1.11 1.14 1.20 1.27 1.32 1.42 1.52 1.59 1.60 1.53 1.46 1.46 1.56 1.61 1.61 1.62 1.79 2.04 2.10 2.09 2.07 1.94 1.67 1.51 1.53 1.52 1.62 1.70 1.80 1.77 1.58 1.40 1.23 1.20 1.26 1.40 1.65 1.96 1.94 1.71 1.56 1.49 1.51 1.51
1.11 1.09 1.13 1.13 1.15 1.21 1.32 1.43 1.48 1.52 1.53 1.54 1.60 1.65 1.71 1.77 1.94 2.14 2.23 2.25 2.13 1.90 1.66 1.46 1.36 1.34 1.38 1.55 1.65 1.59 1.46 1.31 1.18 1.16 1.23 1.36 1.60 1.88 1.79 1.60 1.50 1.50 1.49 1.50
1.10 1.08 1.08 1.12 1.16 1.15 1.21 1.28 1.33 1.45 1.56 1.59 1.71 1.82 1.85 1.84 1.97 2.21 2.40 2.35 2.01 1.70 1.51 1.46 1.29 1.19 1.23 1.43 1.50 1.41 1.35 1.30 1.22 1.23 1.31 1.47 1.73 1.86 1.73 1.59 1.52 1.48 1.46 1.53
1.13 1.08 1.09 1.16 1.22 1.22 1.23 1.27 1.28 1.35 1.47 1.48 1.61 1.76 1.78 1.88 1.88 1.88 1.98 2.13 1.95 1.72 1.40 1.24 1.19 1.22 1.30 1.43 1.42 1.34 1.35 1.34 1.30 1.36 1.45 1.57 1.69 1.74 1.68 1.61 1.62 1.56 1.50 1.53
1.15 1.12 1.11 1.17 1.28 1.31 1.23 1.25 1.27 1.38 1.50 1.47 1.50 1.59 1.73 1.88 1.87 1.88 1.78 1.63 1.59 1.56 1.34 1.21 1.22 1.27 1.32 1.34 1.40 1.40 1.43 1.41 1.34 1.37 1.47 1.55 1.61 1.62 1.64 1.64 1.60 1.52 1.52 1.50
1.12 1.16 1.19 1.17 1.21 1.35 1.42 1.38 1.33 1.39 1.47 1.38 1.32 1.32 1.46 1.62 1.61 1.55 1.60 1.63 1.55 1.50 1.34 1.29 1.25 1.23 1.26 1.22 1.30 1.40 1.47 1.39 1.31 1.30 1.39 1.47 1.50 1.52 1.63 1.70 1.62 1.52 1.45 1.38
1.21 1.25 1.29 1.29 1.35 1.47 1.52 1.48 1.47 1.48 1.48 1.39 1.30 1.22 1.23 1.42 1.53 1.44 1.47 1.50 1.48 1.41 1.30 1.29 1.27 1.30 1.27 1.29 1.30 1.30 1.26 1.18 1.17 1.20 1.29 1.39 1.43 1.45 1.50 1.49 1.40 1.40 1.39 1.34
1.32 1.28 1.28 1.31 1.34 1.39 1.40 1.52 1.62 1.61 1.63 1.60 1.42 1.20 1.15 1.24 1.32 1.40 1.48 1.47 1.48 1.51 1.33 1.23 1.20 1.23 1.25 1.32 1.33 1.23 1.10 1.05 1.07 1.09 1.18 1.31 1.31 1.36 1.40 1.36 1.27 1.29 1.28 1.25
1.25 1.23 1.24 1.26 1.25 1.22 1.21 1.32 1.47 1.61 1.77 1.79 1.56 1.25 1.17 1.22 1.30 1.38 1.41 1.43 1.50 1.52 1.44 1.29 1.19 1.17 1.17 1.20 1.19 1.13 1.06 1.00 0.98 1.02 1.09 1.11 1.14 1.23 1.31 1.33 1.24 1.21 1.23 1.21